When you browse on this site, cookies collect data to enhance your experience and personalize the content and advertising you see.
Visit our Privacy Policy to learn more. By continuing to use the site, you agree to this use of cookies and data.
  • En España
  • Lista de países
  • Para 7 días
  • Temperatura del agua
  • El tiempo en el mapa
  • Informadores
  • user-avatar
    Iniciar sesión

    Tiempo cada hora São Paulo

    Hoy, 27 Febrero, Jueves

    Tiempo Temperatura Precipitaciones Viento Presión Humedad
    00:00 +21°C° 4.6 mm 5 mps 696 mmHg 88%
    01:00 +21°C° 1.1 mm 5 mps 696 mmHg 88%
    02:00 +21°C° 1.1 mm 5 mps 695 mmHg 89%
    03:00 +20°C° 1.1 mm 5 mps 695 mmHg 89%
    04:00 +20°C° 0.4 mm 5 mps 696 mmHg 89%
    05:00 +20°C° 0.4 mm 5 mps 696 mmHg 89%
    06:00 +19°C° 0.4 mm 5 mps 696 mmHg 89%
    07:00 +19°C° 0.2 mm 4 mps 697 mmHg 88%
    08:00 +19°C° 0.2 mm 4 mps 697 mmHg 86%
    09:00 +19°C° 0.2 mm 3 mps 698 mmHg 84%
    10:00 +19°C° 0 mm 3 mps 698 mmHg 82%
    11:00 +20°C° 0 mm 3 mps 698 mmHg 79%
    12:00 +21°C° 0 mm 3 mps 698 mmHg 76%
    13:00 +21°C° 0 mm 3 mps 698 mmHg 76%
    14:00 +21°C° 0 mm 3 mps 698 mmHg 77%
    15:00 +22°C° 0 mm 4 mps 698 mmHg 77%
    16:00 +21°C° 0 mm 4 mps 697 mmHg 79%
    17:00 +21°C° 0 mm 4 mps 697 mmHg 81%
    18:00 +20°C° 0 mm 4 mps 697 mmHg 84%
    19:00 +20°C° 0 mm 4 mps 698 mmHg 84%
    20:00 +19°C° 0 mm 4 mps 698 mmHg 84%
    21:00 +19°C° 0 mm 4 mps 699 mmHg 85%
    22:00 +19°C° 0 mm 3 mps 699 mmHg 85%
    23:00 +19°C° 0 mm 3 mps 699 mmHg 85%

    Mañana, 28 Febrero, Viernes

    Tiempo Temperatura Precipitaciones Viento Presión Humedad
    00:00 +19°C° 0 mm 3 mps 699 mmHg 86%
    01:00 +19°C° 0 mm 3 mps 698 mmHg 86%
    02:00 +19°C° 0 mm 3 mps 698 mmHg 86%
    03:00 +19°C° 0 mm 3 mps 698 mmHg 86%
    04:00 +19°C° 0 mm 3 mps 698 mmHg 87%
    05:00 +19°C° 0 mm 3 mps 698 mmHg 88%
    06:00 +18°C° 0 mm 3 mps 698 mmHg 89%
    07:00 +19°C° 0 mm 3 mps 699 mmHg 86%
    08:00 +20°C° 0 mm 3 mps 699 mmHg 83%
    09:00 +21°C° 0 mm 3 mps 700 mmHg 80%
    10:00 +21°C° 0 mm 3 mps 700 mmHg 78%
    11:00 +22°C° 0 mm 3 mps 700 mmHg 76%
    12:00 +22°C° 0 mm 3 mps 700 mmHg 75%
    13:00 +22°C° 0 mm 4 mps 700 mmHg 75%
    14:00 +22°C° 0 mm 4 mps 700 mmHg 76%
    15:00 +22°C° 0 mm 4 mps 699 mmHg 76%
    16:00 +22°C° 0 mm 4 mps 699 mmHg 79%
    17:00 +21°C° 0 mm 4 mps 699 mmHg 82%
    18:00 +21°C° 0 mm 4 mps 699 mmHg 84%
    19:00 +21°C° 0 mm 4 mps 699 mmHg 85%
    20:00 +20°C° 0 mm 3 mps 699 mmHg 86%
    21:00 +20°C° 0 mm 3 mps 700 mmHg 86%
    22:00 +20°C° 0 mm 3 mps 700 mmHg 86%
    23:00 +20°C° 0 mm 3 mps 700 mmHg 87%

    Pasado mañana, 29 Febrero, Sábado

    Tiempo Temperatura Precipitaciones Viento Presión Humedad
    00:00 +20°C° 0 mm 3 mps 700 mmHg 87%
    01:00 +20°C° 0 mm 3 mps 699 mmHg 87%
    02:00 +20°C° 0 mm 3 mps 699 mmHg 88%
    03:00 +20°C° 0 mm 2 mps 699 mmHg 88%
    04:00 +20°C° 0 mm 2 mps 699 mmHg 88%
    05:00 +20°C° 0 mm 2 mps 699 mmHg 89%
    06:00 +20°C° 0 mm 2 mps 699 mmHg 89%
    07:00 +20°C° 0 mm 2 mps 699 mmHg 87%
    08:00 +21°C° 0 mm 2 mps 700 mmHg 84%
    09:00 +21°C° 0 mm 2 mps 700 mmHg 81%
    10:00 +23°C° 0.1 mm 2 mps 700 mmHg 79%
    11:00 +23°C° 0.1 mm 2 mps 700 mmHg 77%
    12:00 +24°C° 0.1 mm 2 mps 700 mmHg 75%
    13:00 +24°C° 0.4 mm 3 mps 700 mmHg 77%
    14:00 +24°C° 0.4 mm 3 mps 699 mmHg 79%
    15:00 +22°C° 0.4 mm 3 mps 699 mmHg 81%
    16:00 +22°C° 0.2 mm 4 mps 699 mmHg 82%
    17:00 +22°C° 0.2 mm 4 mps 699 mmHg 84%
    18:00 +22°C° 0.2 mm 4 mps 699 mmHg 85%
    19:00 +21°C° 0.1 mm 4 mps 699 mmHg 86%
    20:00 +21°C° 0.1 mm 4 mps 699 mmHg 88%
    21:00 +21°C° 0.1 mm 4 mps 700 mmHg 89%
    22:00 +21°C° 0.2 mm 4 mps 699 mmHg 89%
    23:00 +21°C° 0.2 mm 4 mps 699 mmHg 89%

    1 Marzo, Domingo

    Tiempo Temperatura Precipitaciones Viento Presión Humedad
    00:00 +21°C° 0.2 mm 4 mps 699 mmHg 89%
    01:00 +21°C° 0.1 mm 4 mps 699 mmHg 89%
    02:00 +20°C° 0.1 mm 3 mps 699 mmHg 88%
    03:00 +20°C° 0.1 mm 3 mps 698 mmHg 88%
    04:00 +20°C° 0.2 mm 3 mps 699 mmHg 89%
    05:00 +20°C° 0.2 mm 3 mps 699 mmHg 89%
    06:00 +20°C° 0.2 mm 3 mps 699 mmHg 90%
    07:00 +20°C° 0.7 mm 3 mps 699 mmHg 90%
    08:00 +20°C° 0.7 mm 3 mps 700 mmHg 90%
    09:00 +20°C° 0.7 mm 4 mps 700 mmHg 89%
    10:00 +20°C° 0.8 mm 4 mps 700 mmHg 89%
    11:00 +20°C° 0.8 mm 4 mps 700 mmHg 89%
    12:00 +20°C° 0.8 mm 4 mps 700 mmHg 89%
    13:00 +20°C° 0.3 mm 5 mps 700 mmHg 87%
    14:00 +20°C° 0.3 mm 5 mps 700 mmHg 86%
    15:00 +20°C° 0.3 mm 6 mps 699 mmHg 84%
    16:00 +20°C° 0.4 mm 6 mps 699 mmHg 85%
    17:00 +20°C° 0.4 mm 6 mps 699 mmHg 86%
    18:00 +19°C° 0.4 mm 6 mps 699 mmHg 87%
    19:00 +19°C° 0.3 mm 6 mps 699 mmHg 87%
    20:00 +19°C° 0.3 mm 6 mps 699 mmHg 87%
    21:00 +19°C° 0.3 mm 5 mps 700 mmHg 87%
    22:00 +19°C° 0.1 mm 5 mps 700 mmHg 88%
    23:00 +19°C° 0.1 mm 5 mps 699 mmHg 89%

    2 Marzo, Lunes

    Tiempo Temperatura Precipitaciones Viento Presión Humedad
    00:00 +19°C° 0.1 mm 5 mps 699 mmHg 90%
    01:00 +19°C° 0 mm 4 mps 699 mmHg 90%
    02:00 +19°C° 0 mm 4 mps 698 mmHg 90%
    03:00 +19°C° 0 mm 4 mps 698 mmHg 90%
    04:00 +19°C° 0 mm 4 mps 698 mmHg 90%
    05:00 +19°C° 0 mm 3 mps 698 mmHg 90%
    06:00 +19°C° 0 mm 3 mps 698 mmHg 90%
    07:00 +20°C° 0.1 mm 3 mps 699 mmHg 88%
    08:00 +20°C° 0.1 mm 3 mps 699 mmHg 85%
    09:00 +21°C° 0.1 mm 3 mps 700 mmHg 82%
    10:00 +21°C° 0.3 mm 4 mps 699 mmHg 80%
    11:00 +22°C° 0.3 mm 4 mps 699 mmHg 78%
    12:00 +23°C° 0.3 mm 5 mps 699 mmHg 75%
    13:00 +22°C° 0.4 mm 5 mps 699 mmHg 76%
    14:00 +22°C° 0.4 mm 5 mps 699 mmHg 77%
    15:00 +22°C° 0.4 mm 5 mps 698 mmHg 78%
    16:00 +22°C° 0.2 mm 5 mps 698 mmHg 81%
    17:00 +21°C° 0.2 mm 5 mps 698 mmHg 83%
    18:00 +21°C° 0.2 mm 5 mps 698 mmHg 85%
    19:00 +21°C° 0.1 mm 4 mps 698 mmHg 86%
    20:00 +20°C° 0.1 mm 4 mps 698 mmHg 87%
    21:00 +20°C° 0.1 mm 4 mps 698 mmHg 87%
    22:00 +20°C° 0.1 mm 3 mps 698 mmHg 88%
    23:00 +20°C° 0.1 mm 3 mps 698 mmHg 90%

    3 Marzo, Martes

    Tiempo Temperatura Precipitaciones Viento Presión Humedad
    00:00 +19°C° 0.1 mm 2 mps 698 mmHg 91%
    01:00 +19°C° 0.2 mm 2 mps 698 mmHg 90%
    02:00 +19°C° 0.2 mm 2 mps 697 mmHg 88%
    03:00 +19°C° 0.2 mm 2 mps 697 mmHg 87%
    04:00 +19°C° 0.4 mm 3 mps 697 mmHg 88%
    05:00 +19°C° 0.4 mm 3 mps 697 mmHg 89%
    06:00 +19°C° 0.4 mm 3 mps 697 mmHg 90%
    07:00 +20°C° 0.3 mm 3 mps 698 mmHg 87%
    08:00 +20°C° 0.3 mm 3 mps 698 mmHg 84%
    09:00 +21°C° 0.3 mm 3 mps 699 mmHg 82%
    10:00 +22°C° 0.2 mm 3 mps 699 mmHg 78%
    11:00 +24°C° 0.2 mm 3 mps 698 mmHg 74%
    12:00 +25°C° 0.2 mm 3 mps 698 mmHg 70%
    13:00 +25°C° 0.6 mm 3 mps 698 mmHg 71%
    14:00 +25°C° 0.6 mm 3 mps 698 mmHg 71%
    15:00 +23°C° 0.6 mm 4 mps 697 mmHg 72%
    16:00 +23°C° 0.2 mm 4 mps 697 mmHg 75%
    17:00 +22°C° 0.2 mm 4 mps 697 mmHg 77%
    18:00 +21°C° 0.2 mm 4 mps 697 mmHg 80%
    19:00 +21°C° 0.4 mm 4 mps 697 mmHg 82%
    20:00 +20°C° 0.4 mm 3 mps 697 mmHg 84%
    21:00 +20°C° 0.4 mm 3 mps 697 mmHg 86%
    22:00 +20°C° 0 mm 3 mps 697 mmHg 87%
    23:00 +20°C° 0 mm 3 mps 697 mmHg 88%
    Mostrar más